Total_Precipitation_Accumulation
1.61 1.59 1.62 1.80 1.80 1.87 1.86 1.59 1.36 1.42 1.50 1.44 1.27 1.25 1.34 1.36 1.38 1.51 1.63 1.56 1.52 1.65 1.87 1.98 2.03 1.98 1.94 1.98 1.98 2.01 1.98 1.89 1.83 1.74 1.55 1.40 1.33 1.31 1.32 1.33 1.33 1.24 1.19
1.88 1.91 1.90 1.93 1.93 2.08 2.12 1.86 1.68 1.78 1.74 1.68 1.49 1.40 1.40 1.48 1.46 1.55 1.62 1.58 1.43 1.39 1.58 1.88 2.07 2.15 2.18 2.22 2.14 2.04 2.02 1.96 1.93 1.83 1.69 1.54 1.45 1.39 1.34 1.35 1.37 1.33 1.24
2.21 2.30 2.33 2.23 2.14 2.11 2.15 2.08 1.97 1.94 1.89 1.71 1.60 1.60 1.60 1.49 1.43 1.58 1.70 1.73 1.62 1.53 1.61 1.69 1.81 2.02 2.32 2.46 2.38 2.27 2.20 2.14 2.02 1.92 1.85 1.73 1.59 1.51 1.44 1.40 1.40 1.36 1.30
2.33 2.57 2.61 2.40 2.24 2.16 2.27 2.35 2.24 2.21 2.17 2.09 1.85 1.64 1.66 1.64 1.54 1.59 1.62 1.70 1.82 1.75 1.76 1.70 1.72 1.84 2.05 2.24 2.39 2.43 2.41 2.33 2.22 2.11 2.02 1.92 1.83 1.67 1.52 1.47 1.43 1.39 1.38
2.41 2.59 2.70 2.66 2.41 2.37 2.45 2.38 2.57 2.48 2.46 2.28 1.95 1.74 1.58 1.47 1.51 1.52 1.55 1.60 1.65 1.68 1.75 1.77 1.79 1.83 1.98 2.08 2.19 2.33 2.37 2.37 2.26 2.11 2.07 2.07 1.96 1.80 1.67 1.62 1.54 1.46 1.43
2.50 2.69 2.75 2.79 2.65 2.68 2.78 2.77 2.78 2.61 2.42 2.28 1.99 1.80 1.56 1.34 1.33 1.39 1.39 1.39 1.38 1.40 1.48 1.57 1.69 1.67 1.77 1.85 2.00 2.27 2.53 2.58 2.44 2.27 2.19 2.12 2.01 1.84 1.72 1.71 1.68 1.61 1.55
3.12 3.26 3.20 3.11 2.92 2.87 2.90 2.84 2.72 2.63 2.49 2.46 2.33 2.03 1.65 1.33 1.19 1.15 1.22 1.25 1.21 1.22 1.29 1.41 1.48 1.53 1.58 1.61 1.69 1.92 2.30 2.58 2.54 2.40 2.31 2.21 2.11 2.01 1.91 1.85 1.82 1.77 1.68
3.74 3.68 3.62 3.36 3.12 2.95 2.82 2.71 2.59 2.50 2.36 2.34 2.35 2.28 1.94 1.62 1.28 1.06 1.16 1.21 1.19 1.24 1.24 1.20 1.24 1.28 1.27 1.40 1.53 1.69 1.92 2.07 2.24 2.39 2.37 2.25 2.15 2.09 2.06 2.04 2.01 1.93 1.84
3.60 3.49 3.42 3.27 3.05 2.88 2.75 2.74 2.68 2.60 2.47 2.43 2.43 2.49 2.30 1.88 1.46 1.20 1.09 1.13 1.19 1.25 1.27 1.25 1.19 1.22 1.26 1.31 1.38 1.58 1.75 1.78 1.89 2.07 2.25 2.23 2.15 2.13 2.12 2.15 2.16 2.14 2.08
3.37 3.23 3.22 3.14 2.98 2.77 2.61 2.49 2.47 2.51 2.58 2.47 2.34 2.16 2.04 1.85 1.72 1.48 1.28 1.19 1.17 1.18 1.20 1.20 1.18 1.21 1.29 1.41 1.55 1.63 1.65 1.62 1.65 1.73 1.81 1.91 1.98 2.04 2.08 2.04 2.09 2.19 2.26
3.13 2.96 2.90 2.79 2.61 2.45 2.30 2.18 2.12 2.15 2.22 2.25 2.22 2.13 2.04 1.90 1.76 1.62 1.48 1.37 1.30 1.20 1.16 1.16 1.17 1.23 1.30 1.36 1.49 1.53 1.56 1.50 1.52 1.55 1.59 1.68 1.75 1.84 1.98 2.09 2.18 2.28 2.40
2.94 2.69 2.44 2.34 2.29 2.11 1.88 1.77 1.72 1.72 1.77 1.86 1.95 1.95 1.87 1.83 1.78 1.77 1.65 1.51 1.45 1.39 1.29 1.27 1.22 1.22 1.30 1.29 1.29 1.45 1.41 1.38 1.38 1.41 1.47 1.52 1.51 1.55 1.68 1.85 2.08 2.28 2.42
2.49 2.27 2.07 1.94 1.86 1.80 1.68 1.56 1.49 1.41 1.40 1.48 1.54 1.66 1.69 1.63 1.60 1.68 1.77 1.71 1.55 1.42 1.29 1.23 1.13 1.07 1.10 1.22 1.34 1.35 1.24 1.21 1.17 1.16 1.22 1.36 1.44 1.44 1.40 1.50 1.64 1.85 2.03
2.01 1.81 1.67 1.53 1.37 1.26 1.22 1.23 1.27 1.26 1.24 1.28 1.30 1.42 1.51 1.52 1.53 1.55 1.60 1.74 1.73 1.53 1.37 1.23 1.11 1.04 1.06 1.11 1.23 1.13 1.10 1.07 1.02 1.05 1.08 1.17 1.26 1.39 1.37 1.29 1.26 1.32 1.45
1.51 1.39 1.29 1.24 1.14 1.07 1.04 1.04 1.07 1.12 1.13 1.14 1.17 1.24 1.32 1.31 1.34 1.41 1.47 1.58 1.70 1.65 1.50 1.29 1.26 1.21 1.17 1.16 1.25 1.12 1.14 1.10 1.06 1.12 1.13 1.17 1.24 1.39 1.43 1.33 1.22 1.13 1.10
1.21 1.12 1.06 1.03 0.98 0.96 0.97 1.05 1.06 1.07 1.08 1.05 1.03 1.02 1.03 1.02 1.06 1.12 1.22 1.33 1.45 1.54 1.49 1.24 1.19 1.27 1.25 1.14 1.31 1.21 1.17 1.12 1.09 1.30 1.43 1.35 1.31 1.49 1.64 1.61 1.43 1.29 1.22
0.97 0.95 0.90 0.86 0.86 0.89 0.90 0.94 0.93 0.91 0.86 0.82 0.81 0.82 0.86 0.89 0.94 0.96 1.00 1.14 1.34 1.47 1.50 1.26 1.13 1.21 1.33 1.29 1.33 1.29 1.19 1.14 1.22 1.61 1.81 2.00 1.74 1.62 1.72 1.69 1.58 1.40 1.28
0.87 0.86 0.80 0.72 0.67 0.66 0.67 0.69 0.70 0.74 0.76 0.73 0.76 0.80 0.81 0.82 0.83 0.90 0.96 1.03 1.18 1.36 1.51 1.46 1.26 1.28 1.33 1.34 1.39 1.40 1.24 1.09 1.14 1.59 1.89 2.20 2.15 1.92 1.93 1.77 1.59 1.40 1.28
0.79 0.74 0.71 0.68 0.59 0.56 0.54 0.53 0.55 0.61 0.64 0.64 0.69 0.74 0.78 0.89 0.88 0.89 0.95 0.97 1.07 1.19 1.43 1.52 1.40 1.38 1.45 1.48 1.59 1.50 1.34 1.29 1.08 1.34 1.76 2.09 2.26 2.29 2.37 2.23 1.92 1.56 1.34
0.74 0.73 0.72 0.62 0.52 0.45 0.44 0.43 0.44 0.47 0.49 0.53 0.61 0.67 0.71 0.83 0.90 0.95 0.95 0.97 1.01 1.14 1.32 1.49 1.49 1.47 1.54 1.61 1.64 1.62 1.48 1.32 1.19 1.16 1.61 2.06 2.40 2.43 2.59 2.70 2.41 1.93 1.52
0.67 0.68 0.69 0.64 0.55 0.45 0.38 0.37 0.38 0.42 0.50 0.55 0.58 0.60 0.64 0.74 0.82 0.82 0.77 0.81 0.96 1.16 1.27 1.44 1.50 1.48 1.49 1.60 1.59 1.42 1.35 1.27 1.14 1.10 1.31 1.70 2.37 2.70 2.76 2.81 2.70 2.19 1.72
0.66 0.63 0.63 0.61 0.55 0.42 0.40 0.40 0.38 0.44 0.51 0.57 0.60 0.61 0.59 0.60 0.59 0.62 0.68 0.73 0.84 1.09 1.42 1.62 1.58 1.51 1.39 1.37 1.40 1.35 1.37 1.36 1.31 1.05 1.04 1.34 1.90 2.63 2.87 2.84 2.75 2.17 1.63
0.63 0.59 0.56 0.59 0.56 0.47 0.43 0.40 0.40 0.46 0.56 0.62 0.65 0.65 0.54 0.47 0.56 0.63 0.68 0.72 0.84 1.00 1.29 1.62 1.71 1.50 1.42 1.37 1.40 1.39 1.44 1.50 1.39 1.07 1.07 1.35 1.71 2.35 2.53 2.53 2.43 1.86 1.43
0.60 0.60 0.60 0.61 0.60 0.48 0.44 0.42 0.41 0.47 0.58 0.60 0.61 0.65 0.67 0.64 0.60 0.64 0.70 0.79 0.94 1.07 1.17 1.27 1.57 1.41 1.19 1.18 1.25 1.29 1.37 1.40 1.32 1.14 1.12 1.42 1.71 2.14 2.13 2.17 2.09 1.65 1.31
0.60 0.57 0.55 0.56 0.60 0.57 0.50 0.43 0.40 0.48 0.56 0.57 0.55 0.55 0.55 0.58 0.62 0.71 0.85 1.07 1.21 1.33 1.27 1.40 1.56 1.50 1.34 1.23 1.13 1.18 1.39 1.44 1.40 1.25 1.17 1.40 1.62 1.76 1.85 1.90 1.71 1.53 1.27
0.57 0.52 0.50 0.52 0.56 0.55 0.42 0.36 0.36 0.43 0.51 0.56 0.60 0.60 0.53 0.50 0.61 0.76 1.00 1.29 1.43 1.49 1.36 1.46 1.70 1.74 1.56 1.51 1.46 1.35 1.46 1.50 1.46 1.40 1.17 1.22 1.41 1.45 1.68 1.67 1.51 1.38 1.30